STARLINK-30204, 57472

Orbit data source: Space-Track

STARLINK-30204, 57472 is a payload satellite owned by SpaceX/Seattle (US) in LEO that was launched on Fri, 28 Jul 2023 UTC via an FALCON 9 launch vehicle from the Air Force Eastern Test Range (AFETR). Payload-class satellites include a variety of spacecraft equipped with specific instruments for various scientific and technological missions. These include communications satellites like Starlink; space stations such as the ISS; scientific satellites like the Hubble; Earth observation satellites from companies like Planet Labs, Umbra, and HawkEye 360; GPS; miniature CubeSats for education and research; and military/defense satellites.

Loading next visibility...
Identifier
57472, 2023-107R
Orbit
LEO
Country
Flag of USUS
Related business
Manufacturer
SpaceX/Seattle
Mission
Operational Commercial Communications
Bus & Motor
STARLINK V2M, Unknown motor
Mass
730 kg wet, ~700 kg dry
Launch date (UTC)
2023-07-28 (3 years ago)
Launch vehicle
FALCON 9
Launch site
Air Force Eastern Test Range (AFETR)
Object type
Payload
Rocket body
Debris
Shape & HBR
Box + 2 Pan, 17.7 m
Radar Cross Section
33.884 m², Large (>1 m²)

Expand to show TLE details & history
Last TLE update: 2 days ago

TLE from 2 days ago
0 STARLINK-30204
1 57472U 23107R   26171.19232641  .00001747  00000-0  72978-4 0  9999
2 57472  43.0020 117.2118 0001221 270.7301  89.3410 15.27586652160822
Epoch: 2026-06-20T04:36Z
TLE epoch observation values (Epoch: 2026-06-20T04:36:57.001Z)
Latitude
-0.00009°
Longitude
139.56373°
Altitude
482.795 km
Speed
7.626 km/s
True Right ascension
07h 48m 50s
True Declination
0° 00' 00"
Sunlit
Object was in daylight at epoch
Visualization orbit readout
Latitude
Unknown
Longitude
Unknown
Altitude
Unknown
Speed
Unknown
Apparent Right ascension
Unknown
Apparent Declination
Unknown
Sunlit
N/A
Visualization observer readout
Local Sidereal Time
21:28:55
Azimuth
Unknown
Elevation
Unknown
Doppler factor
Unknown
Orbital elements
Apogee altitude
485.812 km
Perigee altitude
484.136 km
Semi-major axis
6,863.111 km
Eccentricity
0.00012
Inclination
43.002°
RAAN
117.2118°
Arg. of periapsis
270.7301°
True anomaly
89.35499°
Mean anomaly
89.341°
Eccentric anomaly
89.348°
Mean motion
3.81735 °/min
Orbital period
94.31 mins
BSTAR
0.000072978
Loading maneuver chart data...
Computing Atmospheric mass density...
Loading historical data...
Loading historical data...
Loading historical data...
Loading historical data...
Loading historical data...
Loading historical data...
Loading historical data...

Documentation

Showing up to 5 results
|